Tracking 17145 objects as of 23-May-2015
HD Live streaming from Space Station

SL-4 R/B


SL-4 R/B is no longer on orbit
SL-4 R/B is classified as:


NORAD ID: 13956
Int'l Code: 1983-024B
Perigee: N/A
Apogee: N/A
Inclination: N/A
Period: N/A
Semi major axis: N/A
RCS: N/A
Launch date: March 31, 1983
Source: Commonwealth of Independent States (former USSR) (CIS)
Decay date: 1983-04-09

Note: This is a ROCKET BODY
Your satellite tracking list
Your tracking list is empty





NASA's NSSDC Master Catalog

Two Line Element Set (TLE):
1 13956U 83024  B 83097.84698958  .03684808 +02914-6 +06432-4 0  9993
2 13956 072.8593 336.8171 0062396 066.2007 294.5768 16.23959923001197

Source of the keplerian elements: AFSPC

N2YO: 361